Location: Howard City Library
(37.4684°N, 96.2639°W)
Time: 09:44:38
(UTC+00:00)

Cosmos 1833 Rocket - Pass Details

Date: 18 February 2020
Orbit: 832 x 840 km, 71.0° (Epoch: 03 April)

Event Time Altitude Azimuth Distance (km) Brightness Sun altitude
Rises 01:11:21 0° 328° (NNW) 3,400 6.2 -13.6°
Reaches altitude 10° 01:13:58 10° 320° (NW) 2,460 5.6 -14.1°
Maximum altitude 01:19:04 36° 256° (WSW) 1,303 4.4 -15.1°
Drops below altitude 10° 01:24:08 10° 191° (S) 2,442 5.3 -16.1°
Sets 01:26:44 0° 183° (S) 3,371 5.9 -16.6°
